Murray, KY

10:58 AM CST on February 24, 2018 (GMT -0600)
Kyle-Oakley

Weather History for KCEY - March, 2013

Change the Weather History Date:

Friday, March 15, 2013

  Actual Average (KPAH) Record (KPAH)
Temperature  
Mean Temperature 57 °F -  
Max Temperature 75 °F 59 °F 82 °F (2016)
Min Temperature 39 °F 37 °F 20 °F (1969)
Degree Days  
Heating Degree Days 8    
Growing Degree Days 7 (Base 50)    
Moisture  
Dew Point 40 °F    
Average Humidity 51    
Maximum Humidity 70    
Minimum Humidity 36    
Precipitation  
Precipitation 0.00 in - - ()
Sea Level Pressure  
Sea Level Pressure 29.96 in    
Wind  
Wind Speed 9 mph (SW)    
Max Wind Speed 20 mph    
Max Gust Speed 26 mph    
Visibility 10 miles    
Events      
Averages and records for this station are not official NWS values.
T = Trace of Precipitation, MM = Missing Value Source: NWS Daily Summary

Daily Weather History Graph

Daily Weather History Graph

Search for Another Location

Airport or City:

Trip Planner

Search our weather history database for the weather conditions in past years. The results will help you decide how hot, cold, wet, or windy it might be!

Date:

Astronomy

Mar. 15, 2013 Rise Set
Actual Time 7:04 AM CDT 7:01 PM CDT
Civil Twilight 6:38 AM CDT 7:26 PM CDT
Nautical Twilight 6:08 AM CDT 7:56 PM CDT
Astronomical Twilight 5:38 AM CDT 8:27 PM CDT
Moon 9:01 AM CDT (3/15) 11:07 PM CDT (3/15)
Length of Visible Light 12h 48m
Length of Day
11h 57m
Waxing Crescent, 15% of the Moon is Illuminated
Mar 15
Waxing Crescent
Mar 19
First Quarter
Mar 27
Full
Apr 2
Last Quarter
Apr 10
New

Hourly Weather History & Observations

Time (CDT) Temp. Windchill Dew Point Humidity Pressure Visibility Wind Dir Wind Speed Gust Speed Precip Events Conditions
12:15 AM 41.0 °F 36.4 °F 23.0 °F 49% 30.14 in 10.0 mi South 6.9 mph - N/A   Clear
12:35 AM 41.0 °F 35.8 °F 23.0 °F 49% 30.13 in 10.0 mi SSE 8.1 mph - N/A   Clear
12:55 AM 41.0 °F 37.1 °F 23.0 °F 49% 30.12 in 10.0 mi SSE 5.8 mph - N/A   Unknown
1:15 AM 39.2 °F 35.9 °F 23.0 °F 52% 30.11 in 10.0 mi SSE 4.6 mph - N/A   Clear
1:35 AM 41.0 °F 35.8 °F 23.0 °F 49% 30.11 in 10.0 mi South 8.1 mph - N/A   Clear
2:15 AM 41.0 °F 35.8 °F 24.8 °F 53% 30.10 in 10.0 mi South 8.1 mph - N/A   Clear
2:35 AM 41.0 °F 37.1 °F 26.6 °F 57% 30.09 in 10.0 mi South 5.8 mph - N/A   Clear
2:55 AM 41.0 °F 36.4 °F 26.6 °F 57% 30.09 in 10.0 mi South 6.9 mph - N/A   Clear
3:15 AM 41.0 °F 36.4 °F 26.6 °F 57% 30.07 in 10.0 mi South 6.9 mph - N/A   Clear
3:35 AM 42.8 °F 38.0 °F 28.4 °F 57% 30.07 in 10.0 mi SSW 8.1 mph - N/A   Clear
4:15 AM 42.8 °F 38.0 °F 30.2 °F 61% 30.05 in 10.0 mi SSW 8.1 mph - N/A   Clear
4:35 AM 42.8 °F 38.6 °F 30.2 °F 61% 30.06 in 10.0 mi SW 6.9 mph - N/A   Clear
4:55 AM 42.8 °F 38.6 °F 30.2 °F 61% 30.05 in 10.0 mi SSW 6.9 mph - N/A   Clear
5:15 AM 42.8 °F 38.0 °F 30.2 °F 61% 30.05 in 10.0 mi SSW 8.1 mph - N/A   Clear
5:35 AM 41.0 °F 35.8 °F 32.0 °F 70% 30.05 in 10.0 mi SSW 8.1 mph - N/A   Clear
5:55 AM 41.0 °F 36.4 °F 32.0 °F 70% 30.04 in 10.0 mi SSW 6.9 mph - N/A   Clear
6:15 AM 41.0 °F 35.2 °F 32.0 °F 70% 30.04 in 10.0 mi SSW 9.2 mph - N/A   Clear
6:35 AM 42.8 °F 38.0 °F 32.0 °F 66% 30.03 in 10.0 mi SSW 8.1 mph - N/A   Clear
6:55 AM 42.8 °F 38.0 °F 32.0 °F 66% 30.04 in 10.0 mi SW 8.1 mph - N/A   Clear
7:15 AM 42.8 °F 38.0 °F 32.0 °F 66% 30.03 in 10.0 mi SW 8.1 mph - N/A   Clear
7:35 AM 44.6 °F 40.2 °F 32.0 °F 61% 30.03 in 10.0 mi SW 8.1 mph - N/A   Clear
7:55 AM 44.6 °F 40.7 °F 33.8 °F 66% 30.03 in 9.0 mi SSW 6.9 mph - N/A   Clear
8:15 AM 46.4 °F 41.9 °F 35.6 °F 66% 30.03 in 10.0 mi SW 9.2 mph - N/A   Clear
8:35 AM 48.2 °F - 35.6 °F 62% 30.03 in 10.0 mi SW 9.2 mph 16.1 mph N/A   Clear
8:55 AM 50.0 °F - 37.4 °F 62% 30.04 in 10.0 mi SW 10.4 mph - N/A   Clear
9:15 AM 51.8 °F - 37.4 °F 58% 30.03 in 10.0 mi SW 9.2 mph - N/A   Clear
9:35 AM 53.6 °F - 37.4 °F 54% 30.03 in 10.0 mi WSW 9.2 mph - N/A   Clear
11:15 AM 60.8 °F - 41.0 °F 48% 30.02 in 10.0 mi WSW 12.7 mph - N/A   Clear
11:35 AM 62.6 °F - 42.8 °F 48% 30.00 in 10.0 mi West 15.0 mph 18.4 mph N/A   Clear
11:55 AM 64.4 °F - 44.6 °F 49% 29.99 in 10.0 mi WSW 16.1 mph 19.6 mph N/A   Clear
12:15 PM 64.4 °F - 44.6 °F 49% 29.99 in 10.0 mi West 15.0 mph - N/A   Clear
12:35 PM 66.2 °F - 44.6 °F 46% 29.98 in 10.0 mi WSW 12.7 mph 18.4 mph N/A   Clear
12:55 PM 66.2 °F - 44.6 °F 46% 29.97 in 10.0 mi West 12.7 mph - N/A   Clear
1:15 PM 68.0 °F - 46.4 °F 46% 29.97 in 10.0 mi WSW 16.1 mph 19.6 mph N/A   Clear
1:35 PM 69.8 °F - 46.4 °F 43% 29.96 in 10.0 mi WSW 12.7 mph 17.3 mph N/A   Clear
1:55 PM 71.6 °F - 46.4 °F 41% 29.95 in 10.0 mi SW 11.5 mph - N/A   Clear
2:15 PM 71.6 °F - 46.4 °F 41% 29.94 in 10.0 mi SW 13.8 mph 18.4 mph N/A   Clear
2:35 PM 71.6 °F - 46.4 °F 41% 29.93 in 10.0 mi WSW 9.2 mph - N/A   Clear
2:55 PM 73.4 °F - 46.4 °F 38% 29.91 in 10.0 mi WSW 13.8 mph - N/A   Clear
3:15 PM 73.4 °F - 48.2 °F 41% 29.90 in 10.0 mi SW 9.2 mph 17.3 mph N/A   Clear
3:35 PM 73.4 °F - 46.4 °F 38% 29.89 in 10.0 mi WSW 15.0 mph 18.4 mph N/A   Clear
3:55 PM 75.2 °F - 46.4 °F 36% 29.88 in 10.0 mi West 13.8 mph 21.9 mph N/A   Clear
4:15 PM 73.4 °F - 46.4 °F 38% 29.88 in 10.0 mi SW 9.2 mph 20.7 mph N/A   Clear
4:35 PM 73.4 °F - 46.4 °F 38% 29.87 in 10.0 mi SW 10.4 mph 17.3 mph N/A   Clear
4:55 PM 73.4 °F - 46.4 °F 38% 29.87 in 10.0 mi SW 12.7 mph 25.3 mph N/A   Clear
5:15 PM 73.4 °F - 46.4 °F 38% 29.86 in 10.0 mi WSW 8.1 mph - N/A   Clear
5:35 PM 73.4 °F - 46.4 °F 38% 29.85 in 10.0 mi SSW 9.2 mph - N/A   Clear
5:55 PM 71.6 °F - 46.4 °F 41% 29.85 in 10.0 mi SW 9.2 mph - N/A   Clear
6:15 PM 71.6 °F - 46.4 °F 41% 29.85 in 10.0 mi SW 11.5 mph 16.1 mph N/A   Clear
6:35 PM 69.8 °F - 46.4 °F 43% 29.84 in 10.0 mi SW 8.1 mph - N/A   Clear
6:55 PM 68.0 °F - 46.4 °F 46% 29.84 in 10.0 mi SW 6.9 mph - N/A   Clear
7:15 PM 68.0 °F - 46.4 °F 46% 29.84 in 10.0 mi SW 10.4 mph 17.3 mph N/A   Clear
7:35 PM 68.0 °F - 44.6 °F 43% 29.84 in 10.0 mi SW 12.7 mph 16.1 mph N/A   Clear
7:55 PM 68.0 °F - 46.4 °F 46% 29.84 in 10.0 mi SW 12.7 mph 18.4 mph N/A   Clear
8:15 PM 68.0 °F - 46.4 °F 46% 29.83 in 10.0 mi SW 16.1 mph 24.2 mph N/A   Clear
8:35 PM 68.0 °F - 48.2 °F 49% 29.83 in 10.0 mi SW 13.8 mph 25.3 mph N/A   Clear
8:55 PM 68.0 °F - 48.2 °F 49% 29.83 in 10.0 mi SSW 10.4 mph 17.3 mph N/A   Clear
9:15 PM 66.2 °F - 48.2 °F 52% 29.83 in 10.0 mi SW 10.4 mph 18.4 mph N/A   Clear
9:35 PM 66.2 °F - 48.2 °F 52% 29.83 in 10.0 mi SW 11.5 mph 20.7 mph N/A   Clear
9:55 PM 66.2 °F - 48.2 °F 52% 29.83 in 10.0 mi SSW 12.7 mph 20.7 mph N/A   Clear
10:15 PM 66.2 °F - 48.2 °F 52% 29.83 in 10.0 mi SW 15.0 mph 21.9 mph N/A   Clear
10:35 PM 66.2 °F - 48.2 °F 52% 29.83 in 10.0 mi SW 15.0 mph 24.2 mph N/A   Partly Cloudy
10:55 PM 66.2 °F - 48.2 °F 52% 29.83 in 10.0 mi SW 16.1 mph 23.0 mph N/A   Clear
11:15 PM 66.2 °F - 48.2 °F 52% 29.83 in 10.0 mi SW 19.6 mph 26.5 mph N/A   Scattered Clouds
11:35 PM 66.2 °F - 48.2 °F 52% 29.82 in 10.0 mi SW 15.0 mph 24.2 mph N/A   Overcast
11:55 PM 66.2 °F - 48.2 °F 52% 29.81 in 10.0 mi SW 15.0 mph 23.0 mph N/A   Overcast